Tracking 19575 objects as of 18-Feb-2019
HD Live streaming from Space Station
objects crossing your sky now

PORCUPINE 1

Track PORCUPINE 1 now!
10-day predictions
PORCUPINE 1 is classified as:


NORAD ID: 1272
Int'l Code: 1965-016H
Perigee: 905.8 km
Apogee: 936.3 km
Inclination: 70.1 °
Period: 103.3 minutes
Semi major axis: 7292 km
RCS: 0.248 m2 (medium)
Launch date: March 9, 1965
Source: United States (US)
Launch site: AIR FORCE WESTERN TEST RANGE (AFWTR)
aabbcc
Your satellite tracking list
Your tracking list is empty




NASA's NSSDC Master Catalog

Two Line Element Set (TLE):
1  1272U 65016H   19049.51356642 -.00000064  00000-0 -89564-5 0  9994
2  1272  70.0799 171.7900 0020920  25.1708 335.0411 13.94203069743881
Source of the keplerian elements: AFSPC